SCP
0 0 0 0 0 0 0 0 0 0 0 0 0 0 0 0 0 0 0 0 0 0 0 0 0 0 0 0 0 0 0 0 0 0 0 0 0 0 0 0 0 0 0
0 1 0 0 0 0 0 0 0 0 0 0 0 0 0 0 0 0 0 0 0 0 0 0 0 0 0 0 0 0 0 0 0 0 0 0 0 0 0 0 0 0 0
0 0 0 0 0 0 0 0 0 0 0 0 0 0 0 0 0 0 0 0 0 0 0 0 0 0 0 0 0 0 0 0 0 0 0 0 0 0 0 0 0 0 0
0 0 0 0 0 0 0 0 0 0 0 0 0 0 0 0 0 0 0 0 0 0 0 0 0 0 0 0 0 0 0 0 0 0 0 0 0 0 0 0 0 0 0
0 0 0 0 0 0 0 0 0 0 0 0 0 0 0 0 0 0 0 0 0 0 0 0 0 0 0 0 0 0 0 0 0 0 0 0 0 0 0 0 0 0 0
0 0 0 0 0 0 0 0 0 0 0 0 0 0 0 0 0 0 0 0 0 0 0 0 0 0 0 0 0 0 0 0 0 0 0 0 0 0 0 0 0 0 0
0 0 0 0 0 0 0 0 0 0 0 0 0 0 0 0 0 0 0 0 0 0 0 0 0 0 0 0 0 0 0 0 0 0 0 0 0 -0 0 0 0 0 0
0 0 0 0 0 0 0 0 0 0 0 0 0 0 0 0 0 0 0 0 0 0 0 0 0 0 0 0 0 0 0 0 0 0 0 0 0 0 0 -0 -0 -0 -0
0 0 0 0 0 0 0 0 0 0 0 0 0 0 0 0 0 0 -0 0 0 0 0 0 0 0 0 0 0 0 0 0 0 0 0 0 0 0 0 0 -0 -0 -0
0 0 0 0 0 0 0 0 0 0 0 0 0 0 0 0 0 0 0 0 0 0 0 0 0 0 0 0 0 0 0 0 0 0 0 0 0 0 0 0 -0 -0 -0
0 0 0 0 0 0 0 0 0 0 0 0 0 0 0 0 0 0 0 0 0 0 0 0 0 0 0 0 0 0 0 0 0 0 0 0 0 0 0 0 -0 -0 -0
0 0 0 0 0 0 0 0 0 0 0 0 0 0 0 0 0 0 0 0 0 0 0 0 0 0 0 0 0 0 0 0 0 0 0 0 0 0 0 0 0 0 0
0 0 0 0 0 0 0 0 0 0 0 0 0 0 0 0 0 0 0 0 0 -0 0 0 0 0 0 0 0 0 0 0 0 0 0 0 0 0 0 0 -0 -0 0
0 0 0 0 0 0 0 -0 0 0 0 0 0 0 0 0 0 0 0 0 0 0 0 0 0 0 0 0 0 0 0 0 0 0 0 0 0 0 0 0 0 0 -0
0 0 0 0 0 0 0 0 0 0 0 0 0 0 0 0 0 0 0 0 -0 -0 -0 0 0 0 0 0 0 0 0 0 0 0 0 0 0 0 0 0 0 0 0
0 0 0 0 0 0 0 0 0 0 0 0 0 0 0 0 0 0 0 -0 -0 -0 0 0 0 0 0 0 0 0 0 0 0 0 0 0 0 0 0 0 0 0 0
0 0 0 0 0 0 0 0 0 0 0 0 0 -0 0 0 0 0 0 -0 -0 -0 0 0 0 0 0 0 0 0 0 0 0 0 0 0 0 -0 0 0 0 0 0
0 0 0 0 0 0 0 0 0 0 0 0 -0 -0 -0 0 0 0 0 -0 -0 0 -0 0 0 0 0 0 0 0 0 0 0 0 0 0 0 0 0 0 0 0 0
0 0 0 0 0 0 0 0 0 0 0 0 0 0 0 0 0 0 0 -0 -0 0 0 0 0 0 0 0 0 0 0 0 0 0 0 0 0 0 0 0 0 0 0
0 0 0 0 0 0 0 0 0 0 0 0 0 0 0 0 0 0 0 0 0 -0 0 0 0 0 0 0 0 0 0 0 0 0 0 0 0 0 0 0 0 0 0
0 0 0 0 0 0 0 0 0 0 0 0 0 0 0 0 0 0 0 -0 -0 -0 0 0 0 0 0 0 0 0 0 0 0 0 0 0 0 0 0 0 0 0 0
0 0 0 0 0 0 0 0 0 0 0 0 0 0 0 0 -0 0 0 -0 -0 -0 -0 0 0 0 0 0 0 0 0 0 0 0 0 0 0 0 0 0 0 0 0
0 0 0 0 0 0 0 0 0 0 0 0 0 0 0 0 -0 0 -0 -0 -0 -0 -0 0 0 0 0 0 0 0 0 0 0 0 0 0 0 0 0 0 0 0 0
0 0 0 0 -0 0 0 0 0 0 0 0 0 0 0 0 0 0 0 0 0 0 0 0 0 0 0 0 0 0 0 0 0 0 0 0 0 0 0 0 0 0 0
0 0 0 -0 -0 -0 0 0 0 0 0 0 0 0 0 0 0 0 0 0 0 0 0 0 0 0 0 0 0 0 0 0 0 0 0 0 0 0 0 0 0 0 0
0 -0 -0 -0 0 0 0 0 0 0 0 0 0 0 0 0 0 0 0 0 0 0 0 0 0 0 0 0 0 0 0 0 0 0 0 0 0 0 0 0 0 0 0
Wind_Speed_500mb
49 51 56 61 63 56 55 50 38 34 28 19 12 10 9 14 15 12 10 9 10 12 13 15 18 21 22 22 23 22 24 25 36 41 41 42 46 45 48 46 44 43 41
53 53 53 53 53 54 51 44 37 31 27 20 13 4 6 10 10 7 6 7 9 10 13 15 19 21 20 20 20 26 24 30 35 40 38 38 37 41 42 48 44 40 42
55 55 57 56 56 53 48 44 41 35 29 20 13 8 15 8 6 7 6 8 10 13 15 16 18 21 18 17 21 21 24 29 30 36 38 37 38 35 42 39 40 43 40
58 58 59 62 59 56 56 49 38 32 30 18 13 13 14 3 2 4 6 9 10 12 12 12 13 14 15 18 20 24 28 28 30 34 36 37 38 40 41 45 46 40 43
63 61 61 60 57 61 59 53 38 39 34 19 11 7 5 5 3 4 7 8 8 9 10 11 9 14 18 20 20 23 25 27 30 33 36 34 36 43 42 43 44 48 41
63 64 63 64 69 67 60 41 44 43 31 17 12 6 8 10 3 5 6 6 8 8 8 11 12 17 19 27 24 24 27 25 26 28 33 34 38 44 39 39 43 45 49
65 66 65 70 69 68 61 52 49 42 28 18 11 18 14 5 2 6 6 6 6 7 11 11 11 15 23 27 27 27 25 30 30 29 30 36 40 38 40 42 44 45 49
67 66 64 73 74 74 62 58 49 37 25 15 21 19 16 6 4 5 5 7 3 7 9 9 13 18 28 33 27 24 22 20 23 26 29 32 29 32 32 38 38 37 41
66 65 66 77 79 72 62 59 51 37 27 26 25 22 19 9 8 9 13 6 0 4 4 6 12 18 30 32 23 23 22 21 23 32 27 29 32 30 35 37 35 38 39
66 64 66 75 73 69 67 60 47 34 30 28 26 22 20 12 12 9 12 6 2 1 6 13 22 27 31 31 22 22 23 28 27 30 27 26 27 26 31 31 34 34 36
65 66 66 71 73 68 68 53 44 38 34 31 28 22 20 17 11 10 12 11 3 3 5 10 14 27 29 29 26 24 27 30 28 29 27 26 25 24 26 29 30 34 32
70 65 75 71 70 70 54 46 39 42 39 34 29 24 20 18 13 15 14 11 5 2 6 10 16 24 24 24 23 27 26 30 25 27 27 27 27 27 27 29 30 32 30
70 73 68 70 71 58 47 42 39 37 35 33 30 26 21 18 17 17 12 7 4 5 5 13 13 16 23 22 28 34 30 24 25 27 28 29 27 26 27 27 28 30 28
71 65 72 74 58 43 33 39 37 34 33 32 32 28 24 22 19 16 8 3 8 11 15 17 13 15 17 19 21 21 20 24 25 25 27 28 26 24 25 25 28 29 30
61 70 73 56 44 45 44 37 36 34 34 33 30 27 25 22 22 24 18 10 7 8 3 6 6 5 8 11 14 18 21 23 24 26 27 27 26 23 22 25 27 29 32
67 70 55 53 50 50 44 44 41 41 40 37 35 28 24 24 23 18 14 9 5 4 1 3 2 4 6 8 12 14 19 22 24 26 28 28 27 25 22 24 26 29 32
70 64 57 52 49 43 43 49 53 43 38 35 31 28 27 18 13 12 14 10 8 9 5 7 5 4 4 6 8 10 15 18 20 21 25 28 29 28 28 26 27 29 32
65 56 54 47 45 44 57 46 40 37 38 36 34 27 24 21 19 17 12 16 12 15 13 12 9 7 8 9 10 12 13 14 16 18 22 24 27 29 31 31 30 32 33
53 55 48 45 42 44 47 42 40 37 33 31 27 30 27 25 24 22 23 24 20 20 18 16 14 12 11 12 14 15 16 15 20 17 20 23 24 26 29 31 31 33 33
55 55 49 44 40 48 49 46 41 38 36 33 30 24 26 31 28 27 27 27 25 24 21 19 18 17 17 18 17 18 19 21 22 23 25 26 26 27 28 29 30 32 32
56 62 50 39 43 49 48 45 41 38 35 31 29 27 30 24 23 22 24 25 27 25 23 22 21 20 22 23 22 23 24 25 27 28 29 30 31 32 32 31 30 36 35
59 56 49 44 44 47 45 43 40 36 32 30 29 32 28 26 25 25 25 25 26 26 26 26 26 26 27 28 29 29 29 31 31 36 38 40 40 39 38 36 32 35 33
50 44 58 48 44 44 45 41 38 35 32 31 32 30 28 28 26 26 25 24 25 27 27 27 28 29 29 29 30 31 32 35 37 40 43 46 45 43 40 38 34 35 37
57 55 51 49 46 45 45 42 39 35 34 32 32 31 28 27 28 27 26 25 24 22 22 23 25 28 28 29 31 32 36 40 43 47 47 46 44 41 39 33 33 45 34
53 41 44 48 48 47 43 42 38 37 36 34 33 32 31 30 30 29 28 27 27 26 27 29 31 32 35 39 43 45 48 52 47 47 48 47 42 39 37 32 30 39 28
41 38 44 48 44 44 43 42 39 38 39 37 35 34 34 33 31 29 29 29 30 30 30 32 34 37 39 41 41 44 46 46 50 50 52 52 41 35 30 27 26 28 25
Wind_Direction_500mb
198 197 201 204 203 203 205 198 197 203 204 210 229 265 302 336 348 357 1 354 341 337 337 333 333 335 325 326 324 320 314 318 311 313 314 314 319 321 321 322 326 320 317
195 195 194 194 195 198 196 193 190 193 201 200 236 219 332 342 354 12 9 351 348 337 331 336 330 326 328 330 322 323 322 320 315 316 323 325 324 324 325 328 326 322 315
195 193 192 189 192 191 186 191 197 202 208 215 245 277 314 316 2 4 11 354 344 328 327 336 340 342 339 333 335 331 332 326 325 321 321 326 327 330 328 325 325 323 321
194 193 190 189 186 185 195 199 200 219 218 218 248 282 301 299 356 49 0 343 334 318 334 345 355 352 349 346 342 342 332 334 328 324 324 326 332 335 328 331 331 328 324
191 190 188 182 184 194 195 195 224 208 216 226 229 267 203 132 131 6 3 358 4 357 7 20 360 16 7 352 347 334 336 328 325 322 323 327 334 336 333 333 334 336 333
191 188 184 180 192 196 195 218 211 207 207 207 201 190 159 171 332 5 61 55 59 45 28 16 18 4 359 352 345 342 345 335 328 324 322 329 329 330 332 335 336 338 337
191 187 185 188 194 197 203 204 202 196 188 202 201 155 160 216 59 63 80 102 72 35 35 28 27 352 357 345 332 338 331 327 327 328 323 320 320 324 327 335 332 334 335
190 189 185 189 195 200 200 199 193 196 190 188 166 160 158 179 122 100 113 105 54 59 42 31 17 4 345 348 348 337 335 338 318 319 316 319 322 325 326 328 324 334 338
193 189 186 190 197 199 200 194 188 181 172 158 162 161 159 174 168 132 106 105 318 72 30 9 15 360 352 352 0 344 344 335 338 329 344 346 348 344 344 344 341 336 340
194 190 188 197 198 199 196 189 178 167 160 158 157 158 165 170 167 143 119 145 121 88 11 331 333 345 351 355 2 351 346 337 342 340 337 336 337 336 340 345 339 336 343
192 187 190 196 197 198 189 174 175 157 159 158 154 160 157 164 168 150 138 127 164 23 345 332 297 333 347 356 6 349 354 5 351 344 342 340 337 338 337 336 339 338 341
193 181 189 197 195 183 169 169 166 167 162 156 158 156 165 173 173 155 148 140 139 80 343 324 306 328 350 15 12 2 14 15 352 354 353 353 351 349 346 347 344 341 343
176 183 192 186 174 163 163 169 166 157 157 160 161 162 167 166 175 164 154 125 103 57 316 324 332 1 20 7 1 19 20 4 6 2 0 357 356 354 354 353 351 359 357
189 192 182 168 156 158 160 167 155 159 164 162 164 161 168 173 176 186 173 50 7 15 342 328 356 18 12 18 19 14 9 9 12 6 3 2 2 6 5 1 0 359 357
189 178 160 157 159 158 164 167 164 165 165 163 162 163 168 173 185 185 178 185 200 263 7 341 1 14 37 25 22 22 15 21 15 11 8 7 6 6 5 0 0 360 360
175 163 163 164 162 168 171 171 174 178 170 159 167 164 174 179 198 182 186 202 221 280 311 314 347 26 29 23 19 20 15 16 20 16 14 10 6 4 1 359 357 357 356
174 170 175 168 167 173 173 175 178 176 175 177 178 177 174 189 194 201 213 221 229 251 222 259 277 306 320 340 348 350 1 3 8 11 12 13 11 7 3 354 353 351 349
177 173 167 171 171 171 178 176 178 183 186 190 196 198 204 216 225 232 232 230 241 245 228 244 260 281 287 294 307 315 319 337 342 351 353 359 2 4 1 357 351 347 345
175 173 172 172 175 177 178 181 184 189 189 193 197 206 214 222 222 230 238 230 227 233 238 247 256 265 279 288 288 294 302 309 309 324 328 334 340 348 352 350 349 346 344
178 177 174 175 179 180 182 186 189 190 193 195 200 204 212 211 214 228 235 227 227 234 239 247 254 262 267 271 279 287 297 302 302 301 306 311 317 323 326 332 338 339 336
176 183 183 182 181 182 186 189 188 190 197 203 204 202 204 198 205 214 218 222 228 234 241 248 255 263 268 272 276 281 289 293 294 295 295 298 302 303 308 310 315 328 327
183 175 181 186 182 186 188 188 190 194 200 201 199 201 210 201 209 219 223 228 235 242 243 248 254 258 262 265 268 273 279 285 289 291 293 294 295 295 296 297 302 312 315
180 196 188 188 186 188 189 191 195 198 202 203 200 204 208 211 216 224 231 238 244 247 249 252 255 258 261 264 267 270 275 282 287 290 292 293 290 291 287 290 294 286 312
189 190 189 192 190 194 194 195 201 204 206 206 205 208 214 219 224 230 236 240 244 246 247 250 254 257 263 267 271 274 281 286 289 292 289 287 285 286 289 278 278 285 307
192 188 193 194 195 197 199 201 204 210 214 212 215 219 223 228 233 238 241 240 241 250 257 261 264 268 271 273 275 276 278 281 287 289 288 287 278 275 282 271 274 300 298
196 198 195 194 195 198 200 205 207 213 218 221 222 227 230 231 234 240 242 242 247 256 263 267 269 271 273 277 281 277 275 283 287 292 294 296 283 273 264 256 272 295 293
Wind_Speed_850mb
49 51 56 61 63 56 55 50 38 34 28 19 12 10 9 14 15 12 10 9 10 12 13 15 18 21 22 22 23 22 24 25 36 41 41 42 46 45 48 46 44 43 41
53 53 53 53 53 54 51 44 37 31 27 20 13 4 6 10 10 7 6 7 9 10 13 15 19 21 20 20 20 26 24 30 35 40 38 38 37 41 42 48 44 40 42
55 55 57 56 56 53 48 44 41 35 29 20 13 8 15 8 6 7 6 8 10 13 15 16 18 21 18 17 21 21 24 29 30 36 38 37 38 35 42 39 40 43 40
58 58 59 62 59 56 56 49 38 32 30 18 13 13 14 3 2 4 6 9 10 12 12 12 13 14 15 18 20 24 28 28 30 34 36 37 38 40 41 45 46 40 43
63 61 61 60 57 61 59 53 38 39 34 19 11 7 5 5 3 4 7 8 8 9 10 11 9 14 18 20 20 23 25 27 30 33 36 34 36 43 42 43 44 48 41
63 64 63 64 69 67 60 41 44 43 31 17 12 6 8 10 3 5 6 6 8 8 8 11 12 17 19 27 24 24 27 25 26 28 33 34 38 44 39 39 43 45 49
65 66 65 70 69 68 61 52 49 42 28 18 11 18 14 5 2 6 6 6 6 7 11 11 11 15 23 27 27 27 25 30 30 29 30 36 40 38 40 42 44 45 49
67 66 64 73 74 74 62 58 49 37 25 15 21 19 16 6 4 5 5 7 3 7 9 9 13 18 28 33 27 24 22 20 23 26 29 32 29 32 32 38 38 37 41
66 65 66 77 79 72 62 59 51 37 27 26 25 22 19 9 8 9 13 6 0 4 4 6 12 18 30 32 23 23 22 21 23 32 27 29 32 30 35 37 35 38 39
66 64 66 75 73 69 67 60 47 34 30 28 26 22 20 12 12 9 12 6 2 1 6 13 22 27 31 31 22 22 23 28 27 30 27 26 27 26 31 31 34 34 36
65 66 66 71 73 68 68 53 44 38 34 31 28 22 20 17 11 10 12 11 3 3 5 10 14 27 29 29 26 24 27 30 28 29 27 26 25 24 26 29 30 34 32
70 65 75 71 70 70 54 46 39 42 39 34 29 24 20 18 13 15 14 11 5 2 6 10 16 24 24 24 23 27 26 30 25 27 27 27 27 27 27 29 30 32 30
70 73 68 70 71 58 47 42 39 37 35 33 30 26 21 18 17 17 12 7 4 5 5 13 13 16 23 22 28 34 30 24 25 27 28 29 27 26 27 27 28 30 28
71 65 72 74 58 43 33 39 37 34 33 32 32 28 24 22 19 16 8 3 8 11 15 17 13 15 17 19 21 21 20 24 25 25 27 28 26 24 25 25 28 29 30
61 70 73 56 44 45 44 37 36 34 34 33 30 27 25 22 22 24 18 10 7 8 3 6 6 5 8 11 14 18 21 23 24 26 27 27 26 23 22 25 27 29 32
67 70 55 53 50 50 44 44 41 41 40 37 35 28 24 24 23 18 14 9 5 4 1 3 2 4 6 8 12 14 19 22 24 26 28 28 27 25 22 24 26 29 32
70 64 57 52 49 43 43 49 53 43 38 35 31 28 27 18 13 12 14 10 8 9 5 7 5 4 4 6 8 10 15 18 20 21 25 28 29 28 28 26 27 29 32
65 56 54 47 45 44 57 46 40 37 38 36 34 27 24 21 19 17 12 16 12 15 13 12 9 7 8 9 10 12 13 14 16 18 22 24 27 29 31 31 30 32 33
53 55 48 45 42 44 47 42 40 37 33 31 27 30 27 25 24 22 23 24 20 20 18 16 14 12 11 12 14 15 16 15 20 17 20 23 24 26 29 31 31 33 33
55 55 49 44 40 48 49 46 41 38 36 33 30 24 26 31 28 27 27 27 25 24 21 19 18 17 17 18 17 18 19 21 22 23 25 26 26 27 28 29 30 32 32
56 62 50 39 43 49 48 45 41 38 35 31 29 27 30 24 23 22 24 25 27 25 23 22 21 20 22 23 22 23 24 25 27 28 29 30 31 32 32 31 30 36 35
59 56 49 44 44 47 45 43 40 36 32 30 29 32 28 26 25 25 25 25 26 26 26 26 26 26 27 28 29 29 29 31 31 36 38 40 40 39 38 36 32 35 33
50 44 58 48 44 44 45 41 38 35 32 31 32 30 28 28 26 26 25 24 25 27 27 27 28 29 29 29 30 31 32 35 37 40 43 46 45 43 40 38 34 35 37
57 55 51 49 46 45 45 42 39 35 34 32 32 31 28 27 28 27 26 25 24 22 22 23 25 28 28 29 31 32 36 40 43 47 47 46 44 41 39 33 33 45 34
53 41 44 48 48 47 43 42 38 37 36 34 33 32 31 30 30 29 28 27 27 26 27 29 31 32 35 39 43 45 48 52 47 47 48 47 42 39 37 32 30 39 28
41 38 44 48 44 44 43 42 39 38 39 37 35 34 34 33 31 29 29 29 30 30 30 32 34 37 39 41 41 44 46 46 50 50 52 52 41 35 30 27 26 28 25
Wind_Direction_850mb
198 197 201 204 203 203 205 198 197 203 204 210 229 265 302 336 348 357 1 354 341 337 337 333 333 335 325 326 324 320 314 318 311 313 314 314 319 321 321 322 326 320 317
195 195 194 194 195 198 196 193 190 193 201 200 236 219 332 342 354 12 9 351 348 337 331 336 330 326 328 330 322 323 322 320 315 316 323 325 324 324 325 328 326 322 315
195 193 192 189 192 191 186 191 197 202 208 215 245 277 314 316 2 4 11 354 344 328 327 336 340 342 339 333 335 331 332 326 325 321 321 326 327 330 328 325 325 323 321
194 193 190 189 186 185 195 199 200 219 218 218 248 282 301 299 356 49 0 343 334 318 334 345 355 352 349 346 342 342 332 334 328 324 324 326 332 335 328 331 331 328 324
191 190 188 182 184 194 195 195 224 208 216 226 229 267 203 132 131 6 3 358 4 357 7 20 360 16 7 352 347 334 336 328 325 322 323 327 334 336 333 333 334 336 333
191 188 184 180 192 196 195 218 211 207 207 207 201 190 159 171 332 5 61 55 59 45 28 16 18 4 359 352 345 342 345 335 328 324 322 329 329 330 332 335 336 338 337
191 187 185 188 194 197 203 204 202 196 188 202 201 155 160 216 59 63 80 102 72 35 35 28 27 352 357 345 332 338 331 327 327 328 323 320 320 324 327 335 332 334 335
190 189 185 189 195 200 200 199 193 196 190 188 166 160 158 179 122 100 113 105 54 59 42 31 17 4 345 348 348 337 335 338 318 319 316 319 322 325 326 328 324 334 338
193 189 186 190 197 199 200 194 188 181 172 158 162 161 159 174 168 132 106 105 318 72 30 9 15 360 352 352 0 344 344 335 338 329 344 346 348 344 344 344 341 336 340
194 190 188 197 198 199 196 189 178 167 160 158 157 158 165 170 167 143 119 145 121 88 11 331 333 345 351 355 2 351 346 337 342 340 337 336 337 336 340 345 339 336 343
192 187 190 196 197 198 189 174 175 157 159 158 154 160 157 164 168 150 138 127 164 23 345 332 297 333 347 356 6 349 354 5 351 344 342 340 337 338 337 336 339 338 341
193 181 189 197 195 183 169 169 166 167 162 156 158 156 165 173 173 155 148 140 139 80 343 324 306 328 350 15 12 2 14 15 352 354 353 353 351 349 346 347 344 341 343
176 183 192 186 174 163 163 169 166 157 157 160 161 162 167 166 175 164 154 125 103 57 316 324 332 1 20 7 1 19 20 4 6 2 0 357 356 354 354 353 351 359 357
189 192 182 168 156 158 160 167 155 159 164 162 164 161 168 173 176 186 173 50 7 15 342 328 356 18 12 18 19 14 9 9 12 6 3 2 2 6 5 1 0 359 357
189 178 160 157 159 158 164 167 164 165 165 163 162 163 168 173 185 185 178 185 200 263 7 341 1 14 37 25 22 22 15 21 15 11 8 7 6 6 5 0 0 360 360
175 163 163 164 162 168 171 171 174 178 170 159 167 164 174 179 198 182 186 202 221 280 311 314 347 26 29 23 19 20 15 16 20 16 14 10 6 4 1 359 357 357 356
174 170 175 168 167 173 173 175 178 176 175 177 178 177 174 189 194 201 213 221 229 251 222 259 277 306 320 340 348 350 1 3 8 11 12 13 11 7 3 354 353 351 349
177 173 167 171 171 171 178 176 178 183 186 190 196 198 204 216 225 232 232 230 241 245 228 244 260 281 287 294 307 315 319 337 342 351 353 359 2 4 1 357 351 347 345
175 173 172 172 175 177 178 181 184 189 189 193 197 206 214 222 222 230 238 230 227 233 238 247 256 265 279 288 288 294 302 309 309 324 328 334 340 348 352 350 349 346 344
178 177 174 175 179 180 182 186 189 190 193 195 200 204 212 211 214 228 235 227 227 234 239 247 254 262 267 271 279 287 297 302 302 301 306 311 317 323 326 332 338 339 336
176 183 183 182 181 182 186 189 188 190 197 203 204 202 204 198 205 214 218 222 228 234 241 248 255 263 268 272 276 281 289 293 294 295 295 298 302 303 308 310 315 328 327
183 175 181 186 182 186 188 188 190 194 200 201 199 201 210 201 209 219 223 228 235 242 243 248 254 258 262 265 268 273 279 285 289 291 293 294 295 295 296 297 302 312 315
180 196 188 188 186 188 189 191 195 198 202 203 200 204 208 211 216 224 231 238 244 247 249 252 255 258 261 264 267 270 275 282 287 290 292 293 290 291 287 290 294 286 312
189 190 189 192 190 194 194 195 201 204 206 206 205 208 214 219 224 230 236 240 244 246 247 250 254 257 263 267 271 274 281 286 289 292 289 287 285 286 289 278 278 285 307
192 188 193 194 195 197 199 201 204 210 214 212 215 219 223 228 233 238 241 240 241 250 257 261 264 268 271 273 275 276 278 281 287 289 288 287 278 275 282 271 274 300 298
196 198 195 194 195 198 200 205 207 213 218 221 222 227 230 231 234 240 242 242 247 256 263 267 269 271 273 277 281 277 275 283 287 292 294 296 283 273 264 256 272 295 293